Regional Weather Roundup
Issued by NWS

Home | Current Version | Previous Version | Graphics & Text | Print | Product List | Glossary On
Versions: 1 2 3 4 5 6 7 8 9 10 11 12 13 14 15 16 17 18 19 20 21 22 23 24 25 26 27 28 29 30 31 32 33 34 35 36 37 38 39 40 41 42 43 44 45 46 47 48 49 50
000
ASUS43 KLSX 290707
RWRMO

WEATHER SUMMARY FOR MISSOURI
NATIONAL WEATHER SERVICE SPRINGFIELD MO
100 AM CST SAT NOV 29 2014

NOTE: "FAIR" INDICATES FEW OR NO CLOUDS BELOW 12,000 FEET WITH NO
       SIGNIFICANT WEATHER AND/OR OBSTRUCTIONS TO VISIBILITY.
       CURRENT SKY AND/OR WEATHER CONDITIONS ARE NOT AVAILABLE FOR
       CHILLICOTHE AND FARMINGTON.

MOZ001>031-035>038-043-044-053-054-290800-
...NORTHERN AND WESTERN MISSOURI...

CITY           SKY/WX    TMP DP  RH WIND       PRES   REMARKS
KANSAS CTY INT MOCLDY    52  40  63 SW17G25   29.68F
KANSAS C DTWN  CLOUDY    55  41  59 SW13G21   29.69F
LEE`S SUMMIT   CLOUDY    54  43  66 SW20G28   29.71F
ST JOSEPH      MOCLDY    49  38  65 SW9       29.67S
CHILLICOTHE      N/A     46  37  71 S3        29.69F
KIRKSVILLE     CLEAR     44  37  76 S9        29.70F

$$
MOZ066>068-077>081-088>096-101>105-290800-
...SOUTHWEST MISSOURI...

CITY           SKY/WX    TMP DP  RH WIND       PRES   REMARKS
SPRINGFIELD    CLOUDY    47  39  74 S10       29.83F
JOPLIN         CLOUDY    54  46  74 S13       29.81F

$$
MOZ032>034-039>042-045>050-055>058-069>072-290800-
...CENTRAL MISSOURI...

CITY           SKY/WX    TMP DP  RH WIND       PRES   REMARKS
COLUMBIA       MOCLDY    45  36  70 S12       29.78F
JEFFERSON CITY CLOUDY    47  35  63 E6        29.80F
ROLLA          CLOUDY    46  36  68 S17       29.80F
SEDALIA        CLOUDY    54  42  64 SW20G26   29.75F
WHITEMAN AFB   CLOUDY    52  43  70 SW20      29.73F
WARRENSBURG    CLOUDY    52  43  71 S14       29.73F
OSAGE BEACH    CLOUDY    46  36  66 S7        29.80F

$$
MOZ051-052-059>065-290800-
...EAST CENTRAL MISSOURI...

CITY           SKY/WX    TMP DP  RH WIND       PRES   REMARKS
ST LOUIS INTL  PTCLDY    44  34  67 S7        29.86F
SPIRIT OF STL  CLEAR     42  33  70 S3        29.84F
ST CHARLES     CLEAR     34  32  92 E6        29.85F WCI  29

$$
MOZ072>076-082>087-097>100-106>115-290800-
...SOUTH CENTRAL AND SOUTHEAST MISSOURI...

CITY           SKY/WX    TMP DP  RH WIND       PRES   REMARKS
CAPE GIRARDEAU MOCLDY    43  31  62 S8        30.00F
FARMINGTON     MOCLDY    43  34  70 S12       29.91F
POPLAR BLUFF   MOCLDY    42  32  67 S6        29.97F
WEST PLAINS    MOCLDY    44  35  70 S7        29.90F

$$



USA.gov is the U.S. government's official web portal to all federal, state and local government web resources and services.